Regional Weather Roundup
Issued by NWS

Home | Current Version | Previous Version | Text Only | Print | Product List | Glossary On
Versions: 1 2 3 4 5 6 7 8 9 10 11 12 13 14 15 16 17 18 19 20 21 22 23 24 25 26 27 28 29 30 31 32 33 34 35 36 37 38 39 40 41 42 43 44 45 46 47 48 49 50
000
ASUS43 KDMX 240001
RWRIA

WEATHER ROUNDUP FOR IOWA
NATIONAL WEATHER SERVICE DES MOINES IA
700 PM CDT WED AUG 23 2017

NOTE: "FAIR" INDICATES FEW OR NO CLOUDS BELOW 12,000 FEET WITH NO
SIGNIFICANT WEATHER AND/OR OBSTRUCTIONS TO VISIBILITY.

* - THESE STATIONS ARE NOT NWS STATIONS...THUS NOT UNDER NWS
QUALITY CONTROL.  THEY ALSO DO NOT REPORT WEATHER SUCH
AS PRECIPITATION OR FOG.

IAZ001>003-012>014-020>022-031>034-043>046-240100-
   NORTHWEST IOWA

CITY           SKY/WX    TMP DP  RH WIND       PRES   REMARKS
CARROLL *      SUNNY     73  61  64 SW5       30.04F
CHEROKEE *     SUNNY     74  58  57 S7        30.03F
DENISON *      SUNNY     73  59  60 S5        30.06S
LE MARS *      PTSUNNY  N/A N/A N/A SE10      30.00F
ORANGE CITY *  MOSUNNY   75  63  64 S7        30.02F
SHELDON *      MOSUNNY   72  61  68 SE5       30.01F
SIOUX CITY     MOSUNNY   76  59  55 S12       30.01F
6HR MIN TEMP:  75; 6HR MAX TEMP:  78;

SPENCER        SUNNY     74  57  55 S7        30.03F
6HR MIN TEMP:  74; 6HR MAX TEMP:  78;

STORM LAKE *   SUNNY     72  61  68 S5        30.04F
$$

IAZ055>058-069>071-079>083-090>094-240100-
   SOUTHWEST IOWA

CITY           SKY/WX    TMP DP  RH WIND       PRES   REMARKS
ATLANTIC *     SUNNY     73  59  60 S5        30.05F
AUDUBON *      SUNNY     73  59  60 SW5       30.06F
CLARINDA *     SUNNY     75  61  60 CALM      30.07F
COUNCIL BLFS * SUNNY     73  61  64 SE9       30.04F
CRESTON *      SUNNY     75  54  46 NW3       30.07F
HARLAN  *      SUNNY     73  59  60 S7        30.08F
LAMONI         SUNNY     79  53  40 CALM      30.06F
6HR MIN TEMP:  75; 6HR MAX TEMP:  80;

RED OAK *      SUNNY     75  59  57 S5        30.05F
SHENANDOAH *   SUNNY     75  59  57 CALM      30.06S
$$

IAZ047>049-059>061-072>074-084-240100-
   CENTRAL IOWA

CITY           SKY/WX    TMP DP  RH WIND       PRES   REMARKS
AMES           SUNNY     76  57  51 CALM      30.04F
6HR MIN TEMP:  74; 6HR MAX TEMP:  78;

ANKENY *       SUNNY     75  54  46 CALM      30.05F
BOONE *        SUNNY     75  55  50 SW3       30.04F
CHARITON *     SUNNY     75  55  50 CALM      30.05F
DES MOINES     SUNNY     78  50  37 N3        30.04F
6HR MIN TEMP:  77; 6HR MAX TEMP:  80;

GRINNELL*      CLEAR     72  58  62 CALM      30.06F
KNOXVILLE *    SUNNY     75  50  41 NW5       30.04S
MARSHALLTOWN   SUNNY     75  53  46 CALM      30.04F
6HR MIN TEMP:  74; 6HR MAX TEMP:  77;

NEWTON *       SUNNY     73  54  49 CALM      30.05F
PELLA *        CLEAR     76  51  41 CALM      30.06S
PERRY *          N/A     75  55  49 CALM      30.05F
$$

IAZ004>006-015-016-023>025-035-036-240100-
   NORTH CENTRAL IOWA

CITY           SKY/WX    TMP DP  RH WIND       PRES   REMARKS
ALGONA *       PTSUNNY   73  55  53 CALM      30.04F
CLARION *      SUNNY     73  57  56 CALM      30.05S
ESTHERVILLE    SUNNY     71  58  63 SE3       30.03F
6HR MIN TEMP:  71; 6HR MAX TEMP:  76;

MASON CITY     SUNNY     72  54  53 CALM      30.06F
6HR MIN TEMP:  72; 6HR MAX TEMP:  76;

FOREST CITY *    N/A     72  54  53 CALM      30.04F
WEBSTER CITY * SUNNY     75  54  46 CALM      30.03S
IOWA FALLS *     N/A     74  52  45 CALM      30.06S
$$

IAZ007>011-017>019-026>030-037>042-050>054-066-240100-
   NORTHEAST IOWA

CITY           SKY/WX    TMP DP  RH WIND       PRES   REMARKS
CEDAR RAPIDS   CLEAR     72  53  51 W6        30.03F
6HR MIN TEMP:  72; 6HR MAX TEMP:  77;

CHARLES CITY * CLEAR     72  52  49 NW5       30.05F
CLINTON *      CLEAR     70  59  68 N3        30.03F
DECORAH *      CLEAR     70  52  52 N6        30.03S
DUBUQUE        CLEAR     70  53  54 NW5       30.04F
6HR MIN TEMP:  70; 6HR MAX TEMP:  75;

MONTICELLO *   CLEAR     73  54  49 NW5       30.03S
OELWEIN *      CLEAR     70  57  64 NW3       30.05S
WATERLOO       CLEAR     73  49  42 W6        30.03F
6HR MIN TEMP:  73; 6HR MAX TEMP:  77;

$$

IAZ064-065-067-068-078-240100-
   EAST CENTRAL IOWA

CITY           SKY/WX    TMP DP  RH WIND       PRES   REMARKS
DAVENPORT      CLEAR     72  55  55 NW5       30.05F
6HR MIN TEMP:  71; 6HR MAX TEMP:  77;

IOWA CITY      CLEAR     76  51  41 W8        30.05F
6HR MIN TEMP:  76; 6HR MAX TEMP:  79; 6HR PCP: TRACE;

MUSCATINE *    CLEAR     75  54  46 N3        30.03F
QUAD CITIES    PTCLDY    76  50  40 NW6       30.02F
6HR MIN TEMP:  76; 6HR MAX TEMP:  81;

$$

IAZ062-063-075>077-085>089-095>099-240100-
   SOUTHEAST IOWA

CITY           SKY/WX    TMP DP  RH WIND       PRES   REMARKS
BURLINGTON     CLEAR     74  52  46 N6        30.04F
6HR MIN TEMP:  74; 6HR MAX TEMP:  78;

FAIRFIELD *    CLEAR     73  54  49 N3        30.05S
FORT MADISON * CLEAR     72  57  60 N3        30.06S
KEOKUK *       CLEAR     75  50  41 CALM      30.04S
OSKALOOSA *      N/A     73  52  47 N3        30.05F
OTTUMWA        CLEAR     76  50  40 N6        30.05S
6HR MIN TEMP:  76; 6HR MAX TEMP:  80;

WASHINGTON *   CLEAR     72  55  56 N6        30.05F
$$

ABBREVIATIONS USED IN REMARKS
   TC - TEMPERATURES IN CELSIUS
  WCI - WIND CHILL INDEX
   HX - HEAT INDEX
  VSB - VISIBILITY
$$





USA.gov is the U.S. government's official web portal to all federal, state and local government web resources and services.